Weather History for KHEZ - December, 2012

Change the Weather History Date:

Monday, December 10, 2012

  Actual Average Record
Temperature  
Mean Temperature 53 °F -  
Max Temperature 69 °F 62 °F - (-1)
Min Temperature 37 °F 40 °F - (-1)
Degree Days  
Heating Degree Days 12    
Growing Degree Days 3 (Base 50)    
Moisture  
Dew Point 50 °F    
Average Humidity 90    
Maximum Humidity 100    
Minimum Humidity 76    
Precipitation  
Precipitation 0.74 in - - ()
Sea Level Pressure  
Sea Level Pressure 29.90 in    
Wind  
Wind Speed 8 mph (NW)    
Max Wind Speed 18 mph    
Max Gust Speed 25 mph    
Visibility 9 miles    
Events Thunderstorm    
Averages and records for this station are not official NWS values.
T = Trace of Precipitation, MM = Missing Value Source: NWS Daily Summary

Daily Weather History Graph

Daily Weather History Graph

Search for Another Location

Airport or City:

Trip Planner

Search our weather history database for the weather conditions in past years. The results will help you decide how hot, cold, wet, or windy it might be!

Date:

Astronomy

Dec. 10, 2012 Rise Set
Actual Time 6:54 AM CST 5:02 PM CST
Civil Twilight 6:27 AM CST 5:28 PM CST
Nautical Twilight 5:57 AM CST 5:59 PM CST
Astronomical Twilight 5:27 AM CST 6:28 PM CST
Moon 3:45 AM CST (12/10) 2:46 PM CST (12/10)
Length of Visible Light 11h 01m
Length of Day
10h 07m
Waning Crescent, 10% of the Moon is Illuminated
Dec 10
Waning Crescent
Dec 13
New
Dec 19
First Quarter
Dec 28
Full
Jan 4
Last Quarter

Hourly Weather History & Observations

Time (CST) Temp. Windchill Dew Point Humidity Pressure Visibility Wind Dir Wind Speed Gust Speed Precip Events Conditions
12:15 AM 69.8 °F - 66.2 °F 88% 29.86 in 10.0 mi South 8.1 mph - N/A   Overcast
12:35 AM 69.8 °F - 68.0 °F 94% 29.85 in 10.0 mi South 8.1 mph - N/A   Mostly Cloudy
12:55 AM 69.8 °F - 68.0 °F 94% 29.84 in 10.0 mi South 9.2 mph - N/A   Mostly Cloudy
1:15 AM 69.8 °F - 68.0 °F 94% 29.83 in 10.0 mi South 9.2 mph - N/A   Mostly Cloudy
1:35 AM 69.8 °F - 68.0 °F 94% 29.82 in 10.0 mi South 9.2 mph - N/A   Mostly Cloudy
1:55 AM 69.8 °F - 68.0 °F 94% 29.81 in 10.0 mi South 9.2 mph - N/A   Partly Cloudy
2:15 AM 69.8 °F - 68.0 °F 94% 29.80 in 10.0 mi South 8.1 mph - N/A   Clear
2:55 AM 69.8 °F - 68.0 °F 94% 29.78 in 10.0 mi SSW 6.9 mph - N/A   Overcast
3:15 AM 69.8 °F - 68.0 °F 94% 29.77 in 10.0 mi South 3.5 mph - N/A   Overcast
3:35 AM 69.8 °F - 68.0 °F 94% 29.77 in 10.0 mi South 6.9 mph - N/A   Overcast
3:55 AM 69.8 °F - 68.0 °F 94% 29.77 in 10.0 mi SSW 5.8 mph - N/A   Overcast
4:15 AM 69.8 °F - 68.0 °F 94% 29.76 in 10.0 mi SSW 8.1 mph - N/A   Overcast
4:35 AM 69.8 °F - 68.0 °F 94% 29.77 in 10.0 mi SW 9.2 mph - N/A   Overcast
4:55 AM 64.4 °F - 62.6 °F 94% 29.76 in 10.0 mi NW 8.1 mph - 0.03 in Thunderstorm Thunderstorm
5:15 AM 64.4 °F - 62.6 °F 94% 29.74 in 10.0 mi NW 4.6 mph - 0.09 in Thunderstorm Thunderstorm
5:35 AM 64.4 °F - 62.6 °F 94% 29.76 in 7.0 mi Calm Calm - 0.41 in Thunderstorm Thunderstorm
5:55 AM 64.4 °F - 62.6 °F 94% 29.77 in 10.0 mi West 4.6 mph - 0.50 in Thunderstorm Overcast
6:15 AM 62.6 °F - 60.8 °F 94% 29.78 in 10.0 mi South 5.8 mph - 0.08 in Thunderstorm Thunderstorm
6:35 AM 62.6 °F - 60.8 °F 94% 29.77 in 10.0 mi SSW 5.8 mph - 0.15 in   Overcast
7:15 AM 62.6 °F - 62.6 °F 100% 29.81 in 5.0 mi NNW 18.4 mph 25.3 mph 0.06 in   Overcast
7:35 AM 57.2 °F - 55.4 °F 94% 29.84 in 6.0 mi NNW 12.7 mph 18.4 mph 0.06 in   Overcast
7:55 AM 55.4 °F - 55.4 °F 100% 29.85 in 10.0 mi NNW 15.0 mph 20.7 mph 0.06 in   Overcast
8:15 AM 55.4 °F - 53.6 °F 94% 29.86 in 6.0 mi NNW 16.1 mph 24.2 mph N/A   Overcast
8:35 AM 53.6 °F - 51.8 °F 94% 29.88 in 10.0 mi NNW 16.1 mph 25.3 mph N/A   Overcast
8:55 AM 53.6 °F - 51.8 °F 94% 29.89 in 10.0 mi NNW 16.1 mph 20.7 mph N/A   Overcast
9:15 AM 51.8 °F - 50.0 °F 94% 29.91 in 10.0 mi NNW 15.0 mph 20.7 mph N/A   Overcast
9:35 AM 51.8 °F - 50.0 °F 94% 29.91 in 10.0 mi NNW 12.7 mph 19.6 mph N/A   Overcast
9:55 AM 51.8 °F - 48.2 °F 88% 29.92 in 9.0 mi North 17.3 mph 25.3 mph N/A   Overcast
10:15 AM 50.0 °F - 48.2 °F 94% 29.92 in 10.0 mi NNW 10.4 mph 17.3 mph N/A   Overcast
10:35 AM 51.8 °F - 48.2 °F 88% 29.92 in 10.0 mi North 11.5 mph 17.3 mph N/A   Overcast
10:55 AM 50.0 °F - 46.4 °F 87% 29.91 in 10.0 mi North 12.7 mph 20.7 mph N/A   Overcast
11:15 AM 51.8 °F - 46.4 °F 82% 29.91 in 10.0 mi North 12.7 mph 19.6 mph N/A   Overcast
11:35 AM 51.8 °F - 46.4 °F 82% 29.91 in 10.0 mi North 10.4 mph 19.6 mph N/A   Overcast
11:55 AM 51.8 °F - 46.4 °F 82% 29.90 in 10.0 mi North 13.8 mph 18.4 mph N/A   Overcast
12:15 PM 53.6 °F - 46.4 °F 77% 29.90 in 10.0 mi NNW 13.8 mph - N/A   Overcast
12:35 PM 51.8 °F - 44.6 °F 76% 29.89 in 10.0 mi NNW 13.8 mph 20.7 mph N/A   Overcast
12:55 PM 51.8 °F - 44.6 °F 76% 29.89 in 10.0 mi NNW 11.5 mph 17.3 mph N/A   Overcast
1:15 PM 51.8 °F - 44.6 °F 76% 29.90 in 10.0 mi North 11.5 mph 18.4 mph N/A   Overcast
1:35 PM 51.8 °F - 46.4 °F 82% 29.90 in 10.0 mi NW 11.5 mph - N/A   Overcast
1:55 PM 50.0 °F - 44.6 °F 82% 29.90 in 10.0 mi NW 11.5 mph 17.3 mph N/A   Overcast
2:15 PM 50.0 °F - 46.4 °F 87% 29.91 in 10.0 mi NW 10.4 mph 16.1 mph N/A   Overcast
2:35 PM 48.2 °F - 46.4 °F 93% 29.91 in 5.0 mi NNW 12.7 mph 18.4 mph N/A   Overcast
2:55 PM 46.4 °F 41.1 °F 44.6 °F 93% 29.92 in 3.0 mi NNW 11.5 mph 19.6 mph N/A   Overcast
3:15 PM 46.4 °F 41.9 °F 44.6 °F 93% 29.92 in 4.0 mi NNW 9.2 mph - N/A   Overcast
3:35 PM 46.4 °F 41.5 °F 44.6 °F 93% 29.92 in 3.0 mi NNW 10.4 mph - N/A   Overcast
3:55 PM 46.4 °F 42.4 °F 44.6 °F 93% 29.94 in 10.0 mi NNW 8.1 mph - N/A   Overcast
4:15 PM 46.4 °F 42.9 °F 44.6 °F 93% 29.94 in 10.0 mi NNW 6.9 mph - N/A   Overcast
4:35 PM 46.4 °F 41.9 °F 42.8 °F 87% 29.95 in 10.0 mi NNW 9.2 mph - N/A   Overcast
4:55 PM 46.4 °F 42.4 °F 42.8 °F 87% 29.95 in 10.0 mi NNW 8.1 mph - N/A   Overcast
5:35 PM 46.4 °F 44.3 °F 41.0 °F 81% 29.96 in 10.0 mi NNW 4.6 mph - N/A   Mostly Cloudy
5:55 PM 44.6 °F 43.1 °F 41.0 °F 87% 29.96 in 10.0 mi NNW 3.5 mph - N/A   Scattered Clouds
6:15 PM 44.6 °F - 41.0 °F 87% 29.96 in 10.0 mi Calm Calm - N/A   Partly Cloudy
6:35 PM 44.6 °F - 41.0 °F 87% 29.98 in 10.0 mi Calm Calm - N/A   Clear
6:55 PM 42.8 °F - 41.0 °F 93% 29.98 in 10.0 mi Calm Calm - N/A   Clear
7:15 PM 42.8 °F - 41.0 °F 93% 29.98 in 10.0 mi Calm Calm - N/A   Clear
7:35 PM 42.8 °F - 39.2 °F 87% 29.98 in 10.0 mi Calm Calm - N/A   Clear
7:55 PM 41.0 °F - 39.2 °F 93% 29.98 in 10.0 mi Calm Calm - N/A   Clear
8:15 PM 41.0 °F - 39.2 °F 93% 29.98 in 10.0 mi Calm Calm - N/A   Clear
8:55 PM 39.2 °F - 39.2 °F 100% 29.99 in 8.0 mi Calm Calm - N/A   Clear
9:15 PM 37.4 °F 34.9 °F 35.6 °F 93% 30.00 in 10.0 mi North 3.5 mph - N/A   Clear
9:35 PM 39.2 °F 35.9 °F 37.4 °F 93% 30.01 in 10.0 mi North 4.6 mph - N/A   Clear
9:55 PM 39.2 °F 35.9 °F 37.4 °F 93% 30.02 in 10.0 mi North 4.6 mph - N/A   Clear
10:15 PM 39.2 °F 35.0 °F 37.4 °F 93% 30.03 in 10.0 mi North 5.8 mph - N/A   Clear
10:35 PM 39.2 °F 34.2 °F 37.4 °F 93% 30.04 in 10.0 mi North 6.9 mph - N/A   Clear
10:55 PM 39.2 °F 34.2 °F 37.4 °F 93% 30.05 in 10.0 mi North 6.9 mph - N/A   Clear
11:15 PM 39.2 °F 34.2 °F 33.8 °F 81% 30.05 in 10.0 mi North 6.9 mph - N/A   Clear
11:35 PM 37.4 °F 33.8 °F 33.8 °F 87% 30.05 in 10.0 mi North 4.6 mph - N/A   Clear
11:55 PM 37.4 °F 33.8 °F 33.8 °F 87% 30.05 in 10.0 mi North 4.6 mph - N/A   Clear